Torna al catalogo

SL-16 DEB

AttivoLEO
NORAD 22358·DEBRIS·🇷🇺 Russia

Lanciato Dec 25, 1992 da Baikonur Cosmodrome

Loading…

Prossimi Passaggi (prossime 24 ore)

TLE

AggiornatoSource: Space-Track

Epoca: Sep 14, 2026, 11:09 UTC

1 22358U 92093AX  26257.46523916  .00000009  00000-0  42321-4 0  9996
2 22358  71.2275  62.2149 0147528 242.6298 146.4241 13.84979736703201

Traccia SL-16 DEB in tempo reale con AllMySat

Download on the App Store